| time (UTC) | temp F | wind direction | speed MPH | gust MPH | rain 1hr in | rain 24hr in | rain mn in | humidity % | barometer mb |
| 20260507174541 | 64 | 296 | 4.0 | 8.0 | 0.00 | 0.00 | 0.00 | 75 | 1011.5 |
| 20260507173039 | 63 | 310 | 5.0 | 9.0 | 0.00 | 0.00 | 0.00 | 74 | 1011.5 |
| 20260507171539 | 63 | 321 | 4.0 | 10.0 | 0.00 | 0.00 | 0.00 | 76 | 1011.7 |
| 20260507170038 | 63 | 328 | 7.0 | 9.0 | 0.00 | 0.00 | 0.00 | 75 | 1011.6 |
| 20260507164543 | 63 | 321 | 7.0 | 11.0 | 0.00 | 0.00 | 0.00 | 70 | 1011.7 |
| 20260507163042 | 63 | 312 | 5.0 | 12.0 | 0.00 | 0.00 | 0.00 | 77 | 1011.7 |
| 20260507161542 | 63 | 316 | 8.0 | 11.0 | 0.00 | 0.00 | 0.00 | 75 | 1011.8 |
| 20260507160040 | 64 | 322 | 8.0 | 11.0 | 0.00 | 0.00 | 0.00 | 72 | 1011.8 |
| 20260507154541 | 64 | 335 | 8.0 | 11.0 | 0.00 | 0.00 | 0.00 | 74 | 1011.8 |
| 20260507153046 | 64 | 321 | 6.0 | 11.0 | 0.00 | 0.00 | 0.00 | 73 | 1012.0 |
| 20260507151537 | 63 | 326 | 7.0 | 12.0 | 0.00 | 0.00 | 0.00 | 74 | 1012.1 |
| 20260507150043 | 63 | 312 | 7.0 | 11.0 | 0.00 | 0.00 | 0.00 | 73 | 1012.2 |
| 20260507144545 | 64 | 318 | 6.0 | 11.0 | 0.00 | 0.00 | 0.00 | 73 | 1012.3 |
| 20260507143038 | 65 | 325 | 5.0 | 9.0 | 0.00 | 0.00 | 0.00 | 71 | 1012.6 |
| 20260507141537 | 64 | 292 | 6.0 | 11.0 | 0.00 | 0.00 | 0.00 | 69 | 1012.8 |
| 20260507140055 | 65 | 316 | 5.0 | 8.0 | 0.00 | 0.00 | 0.00 | 68 | 1012.8 |
| 20260507134542 | 65 | 320 | 4.0 | 9.0 | 0.00 | 0.00 | 0.00 | 67 | 1012.9 |
| 20260507133040 | 65 | 274 | 3.0 | 9.0 | 0.00 | 0.00 | 0.00 | 67 | 1013.2 |
| 20260507131540 | 64 | 276 | 3.0 | 8.0 | 0.00 | 0.00 | 0.00 | 69 | 1013.3 |
| 20260507130049 | 64 | 319 | 4.0 | 7.0 | 0.00 | 0.00 | 0.00 | 71 | 1013.4 |
| 20260507124543 | 64 | 319 | 3.0 | 6.0 | 0.00 | 0.00 | 0.00 | 71 | 1013.4 |
| 20260507123047 | 63 | 269 | 2.0 | 9.0 | 0.00 | 0.00 | 0.00 | 70 | 1013.5 |
| 20260507121546 | 64 | 281 | 3.0 | 7.0 | 0.00 | 0.00 | 0.00 | 73 | 1013.5 |
| 20260507120044 | 63 | 0 | 1.0 | 7.0 | 0.00 | 0.00 | 0.00 | 75 | 1013.6 |
| 20260507114544 | 62 | 245 | 2.0 | 5.0 | 0.00 | 0.00 | 0.00 | 76 | 1013.7 |
| 20260507113040 | 61 | 319 | 2.0 | 5.0 | 0.00 | 0.00 | 0.00 | 76 | 1013.8 |
| 20260507111540 | 61 | 266 | 1.0 | 4.0 | 0.00 | 0.00 | 0.00 | 76 | 1013.9 |
| 20260507110036 | 61 | 0 | 1.0 | 5.0 | 0.00 | 0.00 | 0.00 | 77 | 1014.1 |
| 20260507104542 | 62 | 271 | 1.0 | 5.0 | 0.00 | 0.00 | 0.00 | 76 | 1014.1 |
| 20260507103041 | 61 | 148 | 0.0 | 3.0 | 0.00 | 0.00 | 0.00 | 78 | 1014.2 |
| 20260507101545 | 61 | 36 | 1.0 | 4.0 | 0.00 | 0.00 | 0.00 | 77 | 1014.2 |
| 20260507100038 | 60 | 240 | 0.0 | 2.0 | 0.00 | 0.00 | 0.00 | 77 | 1014.3 |
| 20260507094537 | 60 | 0 | 0.0 | 2.0 | 0.00 | 0.00 | 0.00 | 77 | 1014.4 |
| 20260507093042 | 59 | 238 | 1.0 | 5.0 | 0.00 | 0.00 | 0.00 | 78 | 1014.3 |
| 20260507091542 | 59 | 0 | 1.0 | 4.0 | 0.00 | 0.00 | 0.00 | 79 | 1014.3 |
| 20260507090042 | 59 | 211 | 1.0 | 2.0 | 0.00 | 0.00 | 0.00 | 78 | 1014.2 |
| 20260507084538 | 59 | 98 | 1.0 | 3.0 | 0.00 | 0.00 | 0.00 | 78 | 1014.2 |
| 20260507083043 | 60 | 116 | 0.0 | 3.0 | 0.00 | 0.00 | 0.00 | 80 | 1014.2 |
| 20260507081536 | 60 | 0 | 0.0 | 2.0 | 0.00 | 0.00 | 0.00 | 80 | 1014.4 |
| 20260507080053 | 58 | 0 | 0.0 | 5.0 | 0.00 | 0.00 | 0.00 | 86 | 1014.3 |
| 20260507074544 | 56 | 122 | 1.0 | 4.0 | 0.00 | 0.00 | 0.00 | 88 | 1014.4 |
| 20260507073036 | 56 | 122 | 0.0 | 2.0 | 0.00 | 0.00 | 0.00 | 91 | 1014.1 |
| 20260507071553 | 54 | 0 | 0.0 | 1.0 | 0.00 | 0.00 | 0.00 | 93 | 1014.0 |
| 20260507070042 | 53 | 0 | 0.0 | 1.0 | 0.00 | 0.00 | 0.00 | 94 | 1014.1 |
| 20260507064545 | 52 | 0 | 0.0 | 0.0 | 0.00 | 0.00 | 0.00 | 94 | 1013.9 |
| 20260507063040 | 51 | 0 | 0.0 | 0.0 | 0.00 | 0.00 | 0.00 | 94 | 1013.8 |
| 20260507061539 | 51 | 0 | 0.0 | 0.0 | 0.00 | 0.00 | 0.00 | 94 | 1013.9 |
| 20260507060036 | 51 | 0 | 0.0 | 0.0 | 0.00 | 0.00 | 0.00 | 94 | 1013.9 |
| 20260507054538 | 51 | 0 | 0.0 | 0.0 | 0.00 | 0.00 | 0.00 | 94 | 1013.8 |
| 20260507053045 | 50 | 0 | 0.0 | 0.0 | 0.00 | 0.00 | 0.00 | 94 | 1013.8 |
| 20260507051541 | 50 | 0 | 0.0 | 0.0 | 0.00 | 0.00 | 0.00 | 94 | 1013.7 |
| 20260507050039 | 50 | 0 | 0.0 | 0.0 | 0.00 | 0.00 | 0.00 | 93 | 1013.6 |
| 20260507044537 | 50 | 0 | 0.0 | 1.0 | 0.00 | 0.02 | 0.00 | 93 | 1013.4 |
| 20260507043038 | 50 | 0 | 0.0 | 1.0 | 0.00 | 0.02 | 0.00 | 93 | 1013.5 |
| 20260507041543 | 50 | 129 | 0.0 | 1.0 | 0.00 | 0.02 | 0.00 | 93 | 1013.5 |
| 20260507040051 | 50 | 131 | 0.0 | 1.0 | 0.00 | 0.02 | 0.00 | 93 | 1013.5 |
| 20260507034544 | 51 | 0 | 0.0 | 0.0 | 0.00 | 0.03 | 0.00 | 93 | 1013.4 |
| 20260507033040 | 51 | 0 | 0.0 | 0.0 | 0.00 | 0.03 | 0.00 | 92 | 1013.4 |
| 20260507031537 | 51 | 0 | 0.0 | 1.0 | 0.00 | 0.03 | 0.00 | 92 | 1013.5 |
| 20260507030043 | 51 | 0 | 0.0 | 0.0 | 0.00 | 0.03 | 0.00 | 92 | 1013.5 |
| 20260507024542 | 51 | 0 | 0.0 | 1.0 | 0.00 | 0.03 | 0.00 | 92 | 1013.4 |
| 20260507023040 | 51 | 0 | 0.0 | 0.0 | 0.00 | 0.03 | 0.00 | 92 | 1013.4 |
| 20260507021541 | 51 | 0 | 0.0 | 0.0 | 0.00 | 0.03 | 0.00 | 91 | 1013.4 |
| 20260507020039 | 51 | 0 | 0.0 | 0.0 | 0.00 | 0.03 | 0.00 | 91 | 1013.5 |
| 20260507014537 | 52 | 0 | 0.0 | 0.0 | 0.00 | 0.03 | 0.00 | 90 | 1013.4 |
| 20260507013037 | 52 | 0 | 0.0 | 0.0 | 0.00 | 0.03 | 0.00 | 90 | 1013.4 |
| 20260507011540 | 53 | 0 | 0.0 | 0.0 | 0.00 | 0.03 | 0.00 | 90 | 1013.5 |
| 20260507010042 | 53 | 0 | 0.0 | 0.0 | 0.00 | 0.03 | 0.00 | 89 | 1013.4 |
| 20260507004541 | 53 | 0 | 0.0 | 0.0 | 0.00 | 0.03 | 0.00 | 89 | 1013.6 |
| 20260507003039 | 54 | 0 | 0.0 | 0.0 | 0.00 | 0.03 | 0.00 | 89 | 1013.7 |
| 20260507001547 | 54 | 0 | 0.0 | 0.0 | 0.00 | 0.03 | 0.00 | 88 | 1013.9 |
| 20260507000041 | 54 | 0 | 0.0 | 0.0 | 0.00 | 0.03 | 0.00 | 88 | 1013.9 |
| 20260506234544 | 54 | 0 | 0.0 | 0.0 | 0.00 | 0.03 | 0.00 | 87 | 1013.9 |
| 20260506233039 | 55 | 0 | 0.0 | 0.0 | 0.00 | 0.03 | 0.00 | 86 | 1013.9 |
| 20260506231539 | 55 | 0 | 0.0 | 0.0 | 0.00 | 0.03 | 0.00 | 85 | 1013.9 |
| 20260506230037 | 55 | 0 | 0.0 | 1.0 | 0.00 | 0.03 | 0.00 | 85 | 1013.8 |
| 20260506224537 | 55 | 0 | 0.0 | 1.0 | 0.00 | 0.03 | 0.00 | 84 | 1014.0 |
| 20260506223041 | 56 | 0 | 0.0 | 1.0 | 0.00 | 0.03 | 0.00 | 83 | 1013.8 |
| 20260506221539 | 56 | 0 | 0.0 | 2.0 | 0.00 | 0.03 | 0.00 | 83 | 1013.8 |
| 20260506220044 | 56 | 0 | 0.0 | 3.0 | 0.00 | 0.03 | 0.00 | 85 | 1013.8 |
| 20260506214538 | 55 | 0 | 0.0 | 1.0 | 0.00 | 0.03 | 0.03 | 87 | 1013.7 |
| 20260506213036 | 54 | 0 | 0.0 | 0.0 | 0.00 | 0.03 | 0.03 | 87 | 1013.8 |
| 20260506211544 | 55 | 0 | 0.0 | 0.0 | 0.00 | 0.03 | 0.03 | 86 | 1013.8 |
| 20260506210040 | 55 | 0 | 0.0 | 0.0 | 0.00 | 0.03 | 0.03 | 85 | 1013.8 |
| 20260506204538 | 55 | 0 | 0.0 | 0.0 | 0.00 | 0.03 | 0.03 | 83 | 1013.7 |
| 20260506203057 | 56 | 0 | 0.0 | 0.0 | 0.00 | 0.03 | 0.03 | 83 | 1013.6 |
| 20260506201536 | 56 | 0 | 0.0 | 0.0 | 0.00 | 0.03 | 0.03 | 83 | 1013.5 |
| 20260506200045 | 56 | 0 | 0.0 | 3.0 | 0.00 | 0.03 | 0.03 | 84 | 1013.2 |
| 20260506194541 | 56 | 34 | 2.0 | 7.0 | 0.00 | 0.03 | 0.03 | 84 | 1013.2 |
| 20260506193039 | 57 | 29 | 4.0 | 9.0 | 0.00 | 0.03 | 0.03 | 81 | 1012.9 |
| 20260506191538 | 58 | 13 | 6.0 | 9.0 | 0.00 | 0.03 | 0.03 | 80 | 1012.8 |
| 20260506190046 | 58 | 345 | 2.0 | 7.0 | 0.00 | 0.03 | 0.03 | 79 | 1012.7 |
| 20260506184543 | 58 | 322 | 4.0 | 8.0 | 0.00 | 0.03 | 0.03 | 78 | 1012.6 |
| 20260506183042 | 58 | 302 | 6.0 | 10.0 | 0.00 | 0.03 | 0.03 | 78 | 1012.5 |
| 20260506181539 | 58 | 312 | 5.0 | 11.0 | 0.00 | 0.03 | 0.03 | 79 | 1012.4 |
| 20260506180040 | 58 | 346 | 5.0 | 11.0 | 0.00 | 0.03 | 0.03 | 80 | 1012.3 |